Location: Azul
(36.7830°S, 59.8500°W)
Time: 01:08:30
(UTC-03:00)

HuskySat-1 - Pass Details

Date: 25 October 2021
Orbit: 443 x 456 km, 51.6° (Epoch: 04 December)

Event Time Altitude Azimuth Distance (km) Brightness Sun altitude
Exits shadow 03:51:13 19° 201° (SSW) 1,183 ? -24.1°
Maximum altitude 03:53:18 33° 147° (SSE) 788 ? -23.8°
Drops below altitude 10° 03:56:36 10° 80° (E) 1,594 ? -23.2°
Sets 03:58:51 0° 70° (ENE) 2,458 ? -22.9°
